STARLINK-2462, 48121

Orbit data source: Space-Track

STARLINK-2462, 48121 is a payload satellite owned by SpaceX/Seattle (US) in LEO that was launched on Wed, 07 Apr 2021 UTC via an FALCON 9 launch vehicle from the Air Force Eastern Test Range (AFETR). Payload-class satellites include a variety of spacecraft equipped with specific instruments for various scientific and technological missions. These include communications satellites like Starlink; space stations such as the ISS; scientific satellites like the Hubble; Earth observation satellites from companies like Planet Labs, Umbra, and HawkEye 360; GPS; miniature CubeSats for education and research; and military/defense satellites.

Loading next visibility...
Identifier
48121, 2021-027AF
Orbit
LEO
Country
Flag of USUS
Related business
Manufacturer
SpaceX/Seattle
Mission
Operational Commercial Communications
Bus & Motor
STARLINK, Unknown motor
Mass
260 kg wet, ~248 kg dry
Launch date (UTC)
2021-04-07 (5 years ago)
Launch vehicle
FALCON 9
Launch site
Air Force Eastern Test Range (AFETR)
Object type
Payload
Rocket body
Debris
Shape & HBR
Box + 1 Pan, 10.1 m
Radar Cross Section
13.562 m², Large (>1 m²)

Expand to show TLE details & history
Last TLE update: 2 days ago

TLE from 2 days ago
0 STARLINK-2462
1 48121U 21027AF  26171.36579059  .00001019  00000-0  44597-4 0  9993
2 48121  53.1615  37.2716 0001203  87.8478 272.2661 15.31710518288380
Epoch: 2026-06-20T08:46Z
TLE epoch observation values (Epoch: 2026-06-20T08:46:44.306Z)
Latitude
-0.00006°
Longitude
-2.99451°
Altitude
471.577 km
Speed
7.631 km/s
True Right ascension
02h 29m 05s
True Declination
0° 00' 00"
Sunlit
Object was in daylight at epoch
Visualization orbit readout
Latitude
Unknown
Longitude
Unknown
Altitude
Unknown
Speed
Unknown
Apparent Right ascension
Unknown
Apparent Declination
Unknown
Sunlit
N/A
Visualization observer readout
Local Sidereal Time
21:26:34
Azimuth
Unknown
Elevation
Unknown
Doppler factor
Unknown
Orbital elements
Apogee altitude
471.789 km
Perigee altitude
470.141 km
Semi-major axis
6,849.102 km
Eccentricity
0.00012
Inclination
53.1615°
RAAN
37.2716°
Arg. of periapsis
87.8478°
True anomaly
272.25233°
Mean anomaly
272.2661°
Eccentric anomaly
272.25921°
Mean motion
3.82906 °/min
Orbital period
94.02 mins
BSTAR
0.000044597
Loading maneuver chart data...
Computing Atmospheric mass density...

Documentation

Showing up to 5 results
|